weather.gov     
National Weather Service

Regional Weather Roundup
NWS Homepage
This page is being discontinued on March 12, 2014.
The same data is available at this site. Please update your bookmarks.
Thank you, and we apologize for the inconvenience.
Please send an email to SR-SRH.Webmaster@noaa.gov with any concerns.


Current Version
Previous Version:    01  02  03  04  05  06  07  08  09  10  11  12  13  14  15  16  17  18  19  20  21  22  23  24  25  26  27  28  29  30  
   31  32  33  34  35  36  37  38  39  40  41  42  43  44  45  46  47  48  49  50  51  52  53  54  55  56  57  58  59  60  
[Printable]
419
ASUS41 KCLE 010810
RWRCLE
OHIO REGIONAL WEATHER ROUNDUP
NATIONAL WEATHER SERVICE WILMINGTON, OH
400 AM EDT MON SEP 01 2014

NOTE: "FAIR" INDICATES FEW OR NO CLOUDS BELOW 12,000 FEET WITH NO
SIGNIFICANT WEATHER AND/OR OBSTRUCTIONS TO VISIBILITY.

OHZ001>008-015>018-024>027-034-035-043-044-010900-
   NORTHWEST OHIO

CITY           SKY/WX    TMP DP  RH WIND       PRES   REMARKS
DEFIANCE       CLEAR     71  67  87 SW3       29.94F
FINDLAY        CLEAR     70  68  93 S6        29.96F
TOLEDO EXPRESS CLEAR     71  69  93 S5        29.94S
TOLEDO METCALF MOCLDY    73  68  84 S8        29.95F
LIMA           CLEAR     71  68  90 S6        29.97F
$$

OHZ009>014-019>023-028>033-038-089-010900-
   NORTHEAST OHIO

CITY           SKY/WX    TMP DP  RH WIND       PRES   REMARKS
CLE-HOPKINS    PTCLDY    71  68  90 S7        29.99F
CLE-LAKEFRONT  CLEAR     74  69  85 S12       29.96F
CUY CO. ARPT   NOT AVBL
LORAIN-ELYRIA  CLEAR     72  68  87 SW5       29.99S
ASHTABULA        N/A     71  69  93 SW6       30.00F
AKRON-CANTON   CLOUDY    72  68  87 SW6       30.01S
WOOSTER        CLOUDY    71  68  90 SW5       30.02S
MANSFIELD      PTCLDY    70  70 100 S7        30.01S
YOUNGSTOWN     CLOUDY    71  69  93 S3        30.02S
$$

OHZ042-051>053-060>062-070>072-077>081-010900-
  SOUTHWEST OHIO

CITY           SKY/WX    TMP DP  RH WIND       PRES   REMARKS
CINC-COVINGTON CLOUDY    73  71  93 SW3       30.01S
CINC-LUNKEN    CLOUDY    72  71  97 SW3       30.01R
HAMILTON       CLOUDY    73  72  96 CALM      30.01S
DAYTON         MOCLDY    71  69  93 S7        30.00F
WRIGHT-PAT AFB PTCLDY    70  70 100 S6        29.99F
DAYTON GENERAL CLOUDY    71  70  96 S7        30.00S
WILMINGTON     CLOUDY    71  69  93 S5        30.01S FOG
$$

OHZ036-037-039>041-045>050-054>059-063>069-073>076-082>088-010900-
  CENTRAL AND SOUTHEAST OHIO

CITY           SKY/WX    TMP DP  RH WIND       PRES   REMARKS
COLUMBUS       CLOUDY    73  68  84 SW3       30.00F
OSU AIRPORT    CLOUDY    71  69  93 SW6       30.01F
BOLTON FIELD   CLOUDY    69  69 100 SW5       30.01F FOG
RICKENBACK AFB CLOUDY    71  65  83 W3        30.01S
NEWARK         CLOUDY    71  69  93 S5        30.01S
MARION         MOCLDY    69  68  96 S6        30.00S
LANCASTER      CLOUDY    71  69  93 CALM      30.01F
ZANESVILLE     CLOUDY    71  68  90 CALM      30.02R
NEW PHILLY     CLOUDY    71  69  93 S3        30.02S
$$




U.S. Dept. of Commerce
NOAA National Weather Service
1325 East West Highway
Silver Spring, MD 20910
E-mail: w-nws.webmaster@noaa.gov
Page last modified: May 16, 2007
NATIONAL WEATHER SERVICE: for Safety, for Work, for Fun - FOR LIFE